Regional Weather Roundup
Issued by NWS Goodland, KS

Home | Current Version | Previous Version | Text Only | Print | Product List | Glossary Off
Versions: 1 2 3 4 5 6 7 8 9 10 11 12 13 14 15 16 17 18 19 20 21 22 23 24 25 26 27 28 29 30 31 32 33 34 35 36 37 38 39 40 41 42 43 44 45 46 47 48 49 50

000
ASUS43 KGLD 240708
RWRGLD

GOODLAND FORECAST AREA HOURLY WEATHER ROUNDUP
NATIONAL WEATHER SERVICE GOODLAND KS
100 AM MDT WED AUG 24 2016

...OFFICIAL OBSERVATIONS...

CITY           SKY/WX    TMP DP  RH WIND       PRES   REMARKS
GOODLAND KS    MOCLDY    60  49  66 N3        30.03R
HILL CITY KS   CLOUDY    71  57  61 N6        29.94R
IMPERIAL NEB   CLOUDY    62  48  60 N9        30.05R
MCCOOK NEB     CLOUDY    64  49  57 CALM      29.98R
AKRON CO       CLOUDY    67  37  33 E3        30.13R
BURLINGTON CO  CLOUDY    69  42  37 CALM      30.10R
LIMON CO       CLOUDY    65  42  43 NW5       30.20R
$$

...UNOFFICIAL OBSERVATIONS...

CITY           SKY/WX    TMP DP  RH WIND       PRES   REMARKS
COLBY KS       CLEAR     64  54  68 N9        30.01R
LENORA KS        N/A     71  32  23 MISG        N/A
NORTON KS      CLEAR     70  48  46 N8        29.94R
SHARON SPRINGS   N/A     69  48  47 W9G26       N/A
TRENTON NEB      N/A     58  32  37 MISG        N/A
KIT CARSON CO    N/A     74  43  32 MISG        N/A
YUMA CO          N/A     58  47  66 CALM        N/A
$$



USA.gov is the U.S. government's official web portal to all federal, state and local government web resources and services.